Hourly Data Report for October 03, 2014

All times are specified in Local Standard Time (LST). Add 1 hour to adjust for Daylight Saving Time where and when it is observed.

OTTAWA INTL A
ONTARIO

45°19'00.000" N
75°40'00.000" W
114.90 m
6106001
71628
YOW

Download Data

Hourly Data (October 2014)
Hourly Data Report for October 3, 2014
Temp Definition
°C
Dew Point Temp Definition
°C
Rel Hum Definition
%
Wind Dir Definition
10's deg

Wind Spd Definition
km/h
Visibility Definition
km
Stn Press Definition
kPa
Hmdx Definition


Wind Chill Definition


Weather Definition


TIME
00:00 Legend Double Dagger 12.0 10.3 89 9 19 24.1 100.41     LegendNANA
01:00 Legend Double Dagger 11.4 9.8 90 9 9 24.1 100.41     Clear
02:00 Legend Double Dagger 10.7 9.6 93 9 13 24.1 100.31     LegendNANA
03:00 Legend Double Dagger 9.6 9.0 96 5 12 24.1 100.33     LegendNANA
04:00 Legend Double Dagger 9.7 8.9 95 6 12 24.1 100.31     Clear
05:00 Legend Double Dagger 9.0 8.6 97 7 8 9.7 100.28     Fog
06:00 Legend Double Dagger 9.0 8.6 97 9 13 8.1 100.20     Fog
07:00 Legend Double Dagger 10.1 9.5 96 9 14 8.1 100.20     Fog
08:00 Legend Double Dagger 11.8 11.0 95 9 13 9.7 100.15     Fog
09:00 Legend Double Dagger 16.0 12.8 81 11 16 16.1 100.06     LegendNANA
10:00 Legend Double Dagger 19.2 13.9 71 13 18 24.1 99.95     Mainly Clear
11:00 Legend Double Dagger 21.8 14.1 61 16 19 24.1 99.84 25   LegendNANA
12:00 Legend Double Dagger 22.2 13.1 56 13 32 24.1 99.68 25   LegendNANA
13:00 Legend Double Dagger 23.1 14.0 56 15 20 24.1 99.57 26   Mostly Cloudy
14:00 Legend Double Dagger 23.2 12.4 50 14 36 24.1 99.42 26   LegendNANA
15:00 Legend Double Dagger 23.5 12.0 48 14 27 24.1 99.34 26   LegendNANA
16:00 Legend Double Dagger 22.4 11.0 48 16 28 24.1 99.29     Mainly Clear
17:00 Legend Double Dagger 20.2 12.0 59 15 14 24.1 99.22     LegendNANA
18:00 Legend Double Dagger 17.7 11.8 68 16 9 24.1 99.23     LegendNANA
19:00 Legend Double Dagger 19.7 12.6 63 16 17 24.1 99.19     Mostly Cloudy
20:00 Legend Double Dagger 20.1 12.0 59 15 25 24.1 99.12     LegendNANA
21:00 Legend Double Dagger 17.7 13.1 74 15 22 24.1 99.07     Rain Showers
22:00 Legend Double Dagger 17.4 13.0 75 16 19 24.1 99.03     Cloudy
23:00 Legend Double Dagger 16.6 13.2 80 14 16 24.1 98.97     Rain Showers

Notes on Data Quality.

Legend

  • E = Estimated
  • M = Missing
  • NA = Not Available
  • ‡ = Partner data that is not subject to review by the National Climate Archives
Date modified: